Погода в Гарме

Таджикистан     39°01′32″N   70°22′27″E
темп.,
°C
ветер,
м/с
пор.,
м/с
влажн.,
%
обл.,
%
осадки,
мм/ч
давл.,
гПа
погр.,
м
14 апреля, ср
ср1423:00+3всв129049 0.3 102674
02:00+2в228227 0.0 102539
05:00+1всв337889 0.0 102547
08:00+4всв3374100 0.0 1023210
11:00+7всв336382 0.0 1021423
14:00+11в224819 0.0 10191062
17:00+10в335588 0.0 1018568
20:00+6всв3368100 0.0 101955
15 апреля, чт
чт1523:00+6всв2265100 0.0 101929
02:00+5всв2265100 0.0 101825
05:00+5всв2263100 0.0 101719
08:00+7всв1158100 0.0 1018189
11:00+10ююз1149100 0.0 1018698
14:00+13ююз224277 0.1 10151634
17:00+13ююв2245100 0.3 10141401
20:00+10ю1164100 0.1 101624
16 апреля, пт
пт1623:00+8в1168100 0.1 101714
02:00+7вюв1168100 0.0 101612
05:00+6в116979 0.0 101712
08:00+8всв11595 0.0 1018319
11:00+11ююв0148100 0.0 10161257
14:00+14з1236100 0.0 10141885
17:00+14ссз01334 0.0 10131687
20:00+11с11475 0.0 101415
17 апреля, сб
сб1723:00+9ссв1255100 0.0 101622
02:00+8св2256100 0.0 101519
05:00+7св2257100 0.0 101420
08:00+10св1151100 0.0 1015248
11:00+13зюз2242100 0.0 10141205
14:00+14ююз4442100 0.4 10121955
17:00+12ююз3452100 2.4 1013923
20:00+9ююз3369100 2.4 101652
18 апреля, вс
вс1823:00+8зюз2272100 4.6 101848
02:00+8ю0165100 1.3 101814
05:00+6юв227698 2.8 1020122
08:00+7ююз345786 1.4 10221209
11:00+4ююз3493100 4.1 1025470
14:00+8ююз3464100 1.6 10221059
17:00+9ююз3357100 3.2 10211155
20:00+7зсз1171100 1.5 1022119